Weather History for Wheeler AAF, HI

Change the Weather History Date:

Saturday, February 23, 2013

  Actual Average Record
Temperature  
Mean Temperature 67 °F -  
Max Temperature 72 °F 74 °F 82 °F (2004)
Min Temperature 62 °F 61 °F 55 °F (2009)
Cooling Degree Days 2    
Growing Degree Days 17 (Base 50)    
Moisture  
Dew Point 61 °F    
Average Humidity 81    
Maximum Humidity 94    
Minimum Humidity 68    
Precipitation  
Precipitation 0.41 in - - ()
Sea Level Pressure  
Sea Level Pressure 30.09 in    
Wind  
Wind Speed 6 mph (NE)    
Max Wind Speed 14 mph    
Max Gust Speed 24 mph    
Visibility 9 miles    
Events Rain    
Averages and records for this station are not official NWS values.
T = Trace of Precipitation, MM = Missing Value Source: NWS Daily Summary

Daily Weather History Graph

Daily Weather History Graph

Search for Another Location

Airport:

Trip Planner

Search our weather history database for the weather conditions in past years. The results will help you decide how hot, cold, wet, or windy it might be!

Date:

Astronomy

Feb. 23, 2013 Rise Set
Actual Time 6:57 AM HST 6:34 PM HST
Civil Twilight 6:34 AM HST 6:56 PM HST
Nautical Twilight 6:08 AM HST 7:22 PM HST
Astronomical Twilight 5:42 AM HST 7:48 PM HST
Moon 5:01 PM HST (2/23) 5:17 AM HST (2/23)
Length of Visible Light 12h 21m
Length of Day
11h 37m
Waxing Gibbous, 96% of the Moon is Illuminated
Feb 23
Waxing Gibbous
Feb 25
Full
Mar 4
Last Quarter
Mar 11
New
Mar 19
First Quarter

Hourly Weather History & Observations

Time (HST) Temp. Dew Point Humidity Pressure Visibility Wind Dir Wind Speed Gust Speed Precip Events Conditions
12:48 AM 66.2 °F 60.8 °F 83% 30.11 in 10.0 mi ENE 9.2 mph - N/A   Light Drizzle
12:55 AM 66.0 °F 60.8 °F 83% 30.10 in 10.0 mi NE 9.2 mph - 0.00 in   Light Drizzle
12:57 AM 66.2 °F 60.8 °F 83% 30.10 in 10.0 mi NE 6.9 mph - N/A   Partly Cloudy
1:17 AM 66.2 °F 60.8 °F 83% 30.10 in 10.0 mi Calm Calm - N/A   Light Drizzle
1:26 AM 66.2 °F 60.8 °F 83% 30.10 in 10.0 mi Calm Calm - N/A   Partly Cloudy
1:55 AM 65.8 °F 60.6 °F 83% 30.08 in 10.0 mi NE 4.6 mph - 0.00 in   Clear
2:55 AM 66.2 °F 61.0 °F 83% 30.06 in 10.0 mi NE 6.9 mph - N/A   Partly Cloudy
3:25 AM 66.2 °F 60.8 °F 83% 30.06 in 10.0 mi NNE 6.9 mph - N/A   Light Drizzle
3:34 AM 66.2 °F 60.8 °F 83% 30.06 in 10.0 mi ENE 3.5 mph - N/A   Partly Cloudy
3:55 AM 65.3 °F 60.4 °F 84% 30.05 in 10.0 mi Calm Calm - 0.00 in   Scattered Clouds
4:55 AM 63.0 °F 59.4 °F 88% 30.06 in 10.0 mi West 3.5 mph - N/A   Scattered Clouds
5:44 AM 62.6 °F 60.8 °F 94% 30.07 in 10.0 mi NNW 3.5 mph - N/A   Light Drizzle
5:53 AM 64.4 °F 60.8 °F 88% 30.07 in 10.0 mi Variable 3.5 mph - N/A   Scattered Clouds
5:55 AM 64.2 °F 60.8 °F 89% 30.07 in 10.0 mi Calm Calm - 0.00 in   Mostly Cloudy
6:09 AM 64.4 °F 60.8 °F 88% 30.08 in 10.0 mi NW 5.8 mph - N/A   Light Drizzle
6:30 AM 64.4 °F 60.8 °F 88% 30.09 in 10.0 mi North 6.9 mph - N/A   Mostly Cloudy
6:53 AM 64.4 °F 60.8 °F 88% 30.09 in 10.0 mi West 3.5 mph - N/A   Light Drizzle
6:55 AM 64.8 °F 61.0 °F 88% 30.09 in 10.0 mi West 3.5 mph - 0.00 in   Light Drizzle
7:06 AM 64.4 °F 60.8 °F 88% 30.10 in 10.0 mi West 4.6 mph - N/A   Mostly Cloudy
7:13 AM 64.4 °F 60.8 °F 88% 30.11 in 10.0 mi Calm Calm - N/A   Light Drizzle
7:25 AM 64.4 °F 60.8 °F 88% 30.11 in 10.0 mi NW 4.6 mph - N/A   Mostly Cloudy
7:55 AM 66.6 °F 61.0 °F 82% 30.11 in 10.0 mi Variable 3.5 mph - 0.00 in   Overcast
8:55 AM 68.5 °F 61.7 °F 79% 30.12 in 10.0 mi ENE 6.9 mph - N/A   Overcast
8:57 AM 68.0 °F 62.6 °F 83% 30.12 in 10.0 mi NE 5.8 mph - N/A   Light Drizzle
9:06 AM 68.0 °F 60.8 °F 78% 30.12 in 10.0 mi Variable 6.9 mph - N/A   Mostly Cloudy
9:26 AM 68.0 °F 62.6 °F 83% 30.13 in 10.0 mi ENE 5.8 mph - N/A   Light Drizzle
9:37 AM 69.8 °F 62.6 °F 78% 30.12 in 10.0 mi Variable 6.9 mph - N/A   Mostly Cloudy
9:55 AM 71.1 °F 63.5 °F 77% 30.12 in 10.0 mi Variable 6.9 mph - 0.00 in   Scattered Clouds
10:14 AM 69.8 °F 62.6 °F 78% 30.12 in 10.0 mi East 9.2 mph 18.4 mph N/A   Light Drizzle
10:25 AM 69.8 °F 62.6 °F 78% 30.12 in 10.0 mi Calm Calm - N/A   Scattered Clouds
10:55 AM 71.2 °F 61.9 °F 72% 30.12 in 10.0 mi East 9.2 mph 21.9 mph 0.00 in   Mostly Cloudy
11:01 AM 69.8 °F 62.6 °F 78% 30.12 in 10.0 mi NE 10.4 mph 19.6 mph N/A   Light Drizzle
11:20 AM 69.8 °F 62.6 °F 78% 30.12 in 10.0 mi East 6.9 mph 17.3 mph N/A   Mostly Cloudy
11:55 AM 72.7 °F 63.1 °F 72% 30.10 in 10.0 mi NE 13.8 mph 21.9 mph 0.00 in   Mostly Cloudy
12:55 PM 72.0 °F 61.5 °F 70% 30.08 in 10.0 mi Variable 5.8 mph - N/A   Mostly Cloudy
1:38 PM 71.6 °F 62.6 °F 73% 30.06 in 10.0 mi NE 11.5 mph 24.2 mph N/A   Light Drizzle
1:55 PM 70.2 °F 61.9 °F 75% 30.06 in 10.0 mi ENE 6.9 mph - 0.00 in   Light Drizzle
1:58 PM 69.8 °F 62.6 °F 78% 30.06 in 10.0 mi NE 9.2 mph - N/A   Scattered Clouds
2:01 PM 69.8 °F 62.6 °F 78% 30.06 in 10.0 mi ENE 12.7 mph 23.0 mph N/A   Light Drizzle
2:32 PM 68.0 °F 62.6 °F 83% 30.05 in 10.0 mi East 10.4 mph - N/A   Clear
2:40 PM 69.8 °F 62.6 °F 78% 30.05 in 10.0 mi East 6.9 mph - N/A   Light Drizzle
2:55 PM 70.9 °F 63.3 °F 77% 30.04 in 10.0 mi East 11.5 mph 18.4 mph 0.01 in   Light Drizzle
2:56 PM 71.6 °F 62.6 °F 73% 30.04 in 10.0 mi East 11.5 mph 18.4 mph N/A   Partly Cloudy
3:12 PM 71.6 °F 62.6 °F 73% 30.04 in 10.0 mi NE 10.4 mph - N/A Rain Light Rain
3:23 PM 69.8 °F 62.6 °F 78% 30.04 in 10.0 mi ENE 12.7 mph - N/A   Scattered Clouds
3:55 PM 70.9 °F 61.7 °F 73% 30.04 in 10.0 mi Variable 4.6 mph - 0.00 in   Mostly Cloudy
4:12 PM 71.6 °F 60.8 °F 69% 30.05 in 10.0 mi ENE 10.4 mph - N/A   Light Drizzle
4:33 PM 69.8 °F 62.6 °F 78% 30.05 in 10.0 mi NNW 5.8 mph - N/A   Mostly Cloudy
5:55 PM 69.1 °F 59.2 °F 71% 30.07 in 10.0 mi Variable 4.6 mph - N/A   Overcast
5:58 PM 69.8 °F 59.0 °F 68% 30.07 in 10.0 mi NE 6.9 mph - N/A   Light Drizzle
6:20 PM 68.0 °F 60.8 °F 78% 30.08 in 10.0 mi Calm Calm - N/A   Light Drizzle
6:21 PM 68.0 °F 60.8 °F 78% 30.08 in 10.0 mi Calm Calm - N/A   Light Drizzle
6:39 PM 66.2 °F 60.8 °F 83% 30.08 in 10.0 mi East 8.1 mph - N/A   Scattered Clouds
6:53 PM 68.0 °F 60.8 °F 78% 30.09 in 10.0 mi NE 9.2 mph - N/A   Mostly Cloudy
6:55 PM 67.1 °F 61.3 °F 82% 30.09 in 10.0 mi NNE 8.1 mph - 0.01 in   Mostly Cloudy
6:58 PM 66.2 °F 60.8 °F 83% 30.09 in 10.0 mi NE 5.8 mph - N/A   Light Drizzle
7:07 PM 66.2 °F 60.8 °F 83% 30.09 in 10.0 mi Variable 4.6 mph - N/A   Mostly Cloudy
7:09 PM 66.2 °F 60.8 °F 83% 30.09 in 10.0 mi East 6.9 mph - N/A   Light Drizzle
7:40 PM 66.2 °F 60.8 °F 83% 30.10 in 10.0 mi ENE 8.1 mph - N/A   Partly Cloudy
7:55 PM 66.2 °F 61.0 °F 83% 30.10 in 10.0 mi Variable 3.5 mph - 0.00 in   Partly Cloudy
7:56 PM 66.2 °F 60.8 °F 83% 30.11 in 9.0 mi ESE 4.6 mph - N/A Rain Light Rain
8:00 PM 66.2 °F 60.8 °F 83% 30.11 in 2.0 mi ENE 5.8 mph - N/A Rain Light Rain
8:02 PM 66.2 °F 60.8 °F 83% 30.11 in 1.8 mi East 6.9 mph - N/A Rain Heavy Rain
8:08 PM 66.2 °F 60.8 °F 83% 30.10 in 2.0 mi Variable 4.6 mph - N/A Rain Light Rain
8:09 PM 66.2 °F 60.8 °F 83% 30.10 in 2.5 mi East 4.6 mph - N/A Rain Light Rain
8:10 PM 66.2 °F 60.8 °F 83% 30.11 in 3.0 mi East 5.8 mph - N/A Rain Light Rain
8:55 PM 65.5 °F 61.9 °F 88% 30.11 in 7.0 mi ENE 8.1 mph - 0.20 in Rain Light Rain
9:55 PM 64.9 °F 61.3 °F 88% 30.12 in 7.0 mi ENE 8.1 mph - 0.04 in Rain Light Rain
10:38 PM 64.4 °F 60.8 °F 88% 30.12 in 10.0 mi NNW 3.5 mph - N/A   Mostly Cloudy
10:43 PM 64.4 °F 60.8 °F 88% 30.12 in 10.0 mi Variable 3.5 mph - N/A   Light Drizzle
10:55 PM 64.9 °F 61.3 °F 88% 30.13 in 4.0 mi ENE 9.2 mph - 0.08 in Rain Light Rain
11:55 PM 64.9 °F 61.3 °F 88% 30.12 in 8.0 mi ENE 6.9 mph - 0.07 in Rain Light Rain